SM4TYA-13 Weather Reports


Display with metric or nautical units.
time (UTC)temp
F
wind
direction
speed
MPH
gust
MPH
rain 1hr
in
rain 24hr
in
rain mn
in
humidity
%
barometer
mb
20260507093936 54 71 2.0 6.0 0.00 0.00 0.00 30 1014.9
20260507093036 53 80 3.0 9.0 0.00 0.00 0.00 29 1014.9
20260507092136 52 302 2.0 5.0 0.00 0.00 0.00 35 1014.8
20260507091236 52 289 2.0 5.0 0.00 0.00 0.00 35 1014.9
20260507090336 51 245 3.0 6.0 0.00 0.00 0.00 41 1015.0
20260507085436 51 247 2.0 6.0 0.00 0.00 0.00 39 1014.9
20260507084747 51 245 2.0 6.0 0.00 0.00 0.00 38 1014.9
20260507083636 51 270 2.0 6.0 0.00 0.00 0.00 40 1014.9
20260507082736 52 281 1.0 5.0 0.00 0.00 0.00 46 1014.8
20260507081835 49 281 3.0 6.0 0.00 0.00 0.00 47 1014.6
20260507080936 50 294 1.0 5.0 0.00 0.00 0.00 50 1014.7
20260507080036 48 280 2.0 4.0 0.00 0.00 0.00 54 1014.8
20260507075136 48 294 2.0 4.0 0.00 0.00 0.00 56 1014.8
20260507074236 46 322 2.0 4.0 0.00 0.00 0.00 53 1014.8
20260507073336 47 303 2.0 4.0 0.00 0.00 0.00 57 1014.6
20260507072436 45 304 2.0 3.0 0.00 0.00 0.00 58 1014.6
20260507071746 44 271 2.0 3.0 0.00 0.00 0.00 57 1014.6
20260507070636 44 276 2.0 4.0 0.00 0.00 0.00 59 1014.6
20260507065736 44 291 2.0 3.0 0.00 0.00 0.00 60 1014.6
20260507064836 43 300 1.0 3.0 0.00 0.00 0.00 60 1014.5
20260507063935 43 296 1.0 3.0 0.00 0.00 0.00 59 1014.5
20260507063036 42 271 1.0 3.0 0.00 0.00 0.00 60 1014.3
20260507062135 42 262 1.0 3.0 0.00 0.00 0.00 61 1014.4
20260507061447 42 231 1.0 3.0 0.00 0.00 0.00 60 1014.3
20260507060336 42 132 1.0 2.0 0.00 0.00 0.00 59 1014.2
20260507055436 42 133 1.0 3.0 0.00 0.00 0.00 61 1014.1
20260507054536 42 124 2.0 3.0 0.00 0.00 0.00 59 1014.1
20260507053636 43 130 1.0 3.0 0.00 0.00 0.00 54 1014.0
20260507052736 41 114 1.0 3.0 0.00 0.00 0.00 57 1014.0
20260507051835 41 120 1.0 2.0 0.00 0.00 0.00 57 1014.0
20260507050935 39 252 1.0 3.0 0.00 0.00 0.00 58 1014.0
20260507050036 39 258 0.0 1.0 0.00 0.00 0.00 59 1013.9
20260507045135 38 134 1.0 2.0 0.00 0.00 0.00 60 1013.8
20260507044236 37 134 1.0 2.0 0.00 0.00 0.00 62 1013.8
20260507043336 36 119 2.0 4.0 0.00 0.00 0.00 63 1013.7
20260507042645 36 108 1.0 3.0 0.00 0.00 0.00 63 1013.7
20260507041536 35 104 0.0 2.0 0.00 0.00 0.00 64 1013.5
20260507040845 34 104 0.0 2.0 0.00 0.00 0.00 66 1013.6
20260507035736 33 0 0.0 0.0 0.00 0.00 0.00 71 1013.3
20260507034836 32 103 0.0 2.0 0.00 0.00 0.00 72 1013.3
20260507034147 32 103 0.0 2.0 0.00 0.00 0.00 75 1013.2
20260507033036 30 103 0.0 1.0 0.00 0.00 0.00 75 1013.2
20260507032136 31 95 1.0 2.0 0.00 0.00 0.00 75 1013.1
20260507031235 30 89 0.0 2.0 0.00 0.00 0.00 77 1013.0
20260507030336 28 96 1.0 2.0 0.00 0.00 0.00 80 1012.9
20260507025649 27 101 1.0 2.0 0.00 0.00 0.00 81 1013.0
20260507024536 27 101 0.0 1.0 0.00 0.00 0.00 81 1013.1
20260507023636 28 98 1.0 2.0 0.00 0.00 0.00 81 1013.0
20260507022946 28 93 1.0 3.0 0.00 0.00 0.00 82 1013.0
20260507021835 28 91 0.0 2.0 0.00 0.00 0.00 82 1012.9
20260507020936 28 99 0.0 1.0 0.00 0.00 0.00 82 1012.9
20260507020036 29 99 0.0 1.0 0.00 0.00 0.00 81 1012.9
20260507015136 30 100 0.0 1.0 0.00 0.00 0.00 80 1012.8
20260507014236 30 96 1.0 4.0 0.00 0.00 0.00 80 1012.5
20260507013336 30 95 1.0 2.0 0.00 0.00 0.00 80 1012.7
20260507012436 30 92 1.0 1.0 0.00 0.00 0.00 78 1012.6
20260507011535 30 93 0.0 1.0 0.00 0.00 0.00 77 1012.5
20260507010847 30 93 1.0 2.0 0.00 0.00 0.00 77 1012.5
20260507005736 30 92 1.0 1.0 0.00 0.00 0.00 77 1012.4
20260507004836 30 92 0.0 1.0 0.00 0.00 0.00 77 1012.4
20260507003935 31 93 1.0 2.0 0.00 0.00 0.00 76 1012.2
20260507003246 31 92 1.0 2.0 0.00 0.00 0.00 76 1012.3
20260507002136 32 92 0.0 2.0 0.00 0.00 0.00 75 1012.1
20260507001235 31 93 1.0 2.0 0.00 0.00 0.00 74 1012.2
20260507000336 32 93 1.0 2.0 0.00 0.00 0.00 74 1012.0
20260506235436 32 0 0.0 0.0 0.00 0.00 0.00 73 1012.0
20260506234748 33 0 0.0 0.0 0.00 0.00 0.00 73 1011.8
20260506233636 34 94 1.0 2.0 0.00 0.00 0.00 72 1011.8
20260506232948 33 96 0.0 2.0 0.00 0.00 0.00 73 1011.8
20260506231836 34 87 1.0 3.0 0.00 0.00 0.00 71 1011.7
20260506230936 35 85 0.0 2.0 0.00 0.00 0.00 70 1011.7
20260506230036 36 89 2.0 4.0 0.00 0.00 0.00 70 1011.6
20260506225135 35 88 1.0 3.0 0.00 0.00 0.00 69 1011.4
20260506224235 36 95 0.0 2.0 0.00 0.00 0.00 68 1011.4
20260506223547 36 99 0.0 1.0 0.00 0.00 0.00 67 1011.3
20260506222436 37 98 1.0 3.0 0.00 0.00 0.00 65 1011.3
20260506221535 38 86 1.0 3.0 0.00 0.00 0.00 65 1011.3
20260506220635 38 77 1.0 2.0 0.00 0.00 0.00 63 1011.0
20260506215736 39 77 0.0 2.0 0.00 0.00 0.00 62 1011.0
20260506215049 40 0 0.0 0.0 0.00 0.00 0.00 60 1011.0
20260506213936 40 77 0.0 1.0 0.00 0.00 0.00 59 1011.0
20260506213035 40 75 1.0 3.0 0.00 0.00 0.00 57 1010.9
20260506212136 41 90 1.0 2.0 0.00 0.00 0.00 57 1010.9
20260506211236 42 89 1.0 2.0 0.00 0.00 0.00 55 1010.8
20260506210336 43 87 1.0 3.0 0.00 0.00 0.00 52 1010.8
20260506205436 43 77 0.0 2.0 0.00 0.00 0.00 52 1010.9
20260506204745 44 74 0.0 3.0 0.00 0.00 0.00 50 1010.8
20260506203847 45 103 2.0 6.0 0.00 0.00 0.00 48 1010.9
20260506202736 45 67 2.0 5.0 0.00 0.00 0.00 49 1010.8
20260506201836 45 46 1.0 4.0 0.00 0.00 0.00 48 1010.7
20260506200935 45 342 1.0 3.0 0.00 0.00 0.00 47 1010.6
20260506200036 46 7 2.0 6.0 0.00 0.00 0.00 47 1010.6
20260506195136 46 12 3.0 8.0 0.00 0.00 0.00 46 1010.5
20260506194236 46 11 3.0 8.0 0.00 0.00 0.00 44 1010.6
20260506193336 47 355 3.0 6.0 0.00 0.00 0.00 43 1010.5
20260506192436 47 18 4.0 9.0 0.00 0.00 0.00 44 1010.5
20260506191536 47 51 2.0 6.0 0.00 0.00 0.00 45 1010.5
20260506190635 47 35 1.0 4.0 0.00 0.00 0.00 47 1010.5
20260506185735 48 27 1.0 2.0 0.00 0.00 0.00 46 1010.4
20260506184836 48 21 3.0 5.0 0.00 0.00 0.00 46 1010.4
20260506183935 48 14 2.0 4.0 0.00 0.00 0.00 45 1010.4
20260506183036 48 14 3.0 9.0 0.00 0.00 0.00 42 1010.2
20260506182135 49 37 4.0 8.0 0.00 0.00 0.00 40 1010.2
20260506181450 49 75 2.0 6.0 0.00 0.00 0.00 36 1010.1
20260506180336 49 111 5.0 14.0 0.00 0.00 0.00 37 1010.1
20260506175650 49 80 4.0 11.0 0.00 0.00 0.00 35 1010.0
20260506174536 49 348 5.0 12.0 0.00 0.00 0.00 36 1009.8
20260506173635 50 39 6.0 19.0 0.00 0.00 0.00 37 1010.0
20260506172736 50 99 4.0 12.0 0.00 0.00 0.00 34 1009.8
20260506171836 50 68 0.0 5.0 0.00 0.00 0.00 35 1009.8
20260506170936 50 115 0.0 1.0 0.00 0.00 0.00 36 1009.6
20260506170036 50 117 1.0 2.0 0.00 0.00 0.00 33 1009.5
20260506165136 50 93 2.0 6.0 0.00 0.00 0.00 33 1009.6
20260506164235 51 33 1.0 4.0 0.00 0.00 0.00 33 1009.6
20260506163335 52 61 1.0 4.0 0.00 0.00 0.00 32 1009.6
20260506162436 51 56 2.0 7.0 0.00 0.00 0.00 33 1009.6
20260506161536 51 20 3.0 9.0 0.00 0.00 0.00 34 1009.7
20260506160636 52 10 6.0 11.0 0.00 0.00 0.00 34 1009.7
20260506155735 52 359 6.0 13.0 0.00 0.00 0.00 32 1009.4
20260506155047 52 20 3.0 13.0 0.00 0.00 0.00 33 1009.5
20260506154150 52 8 2.0 5.0 0.00 0.00 0.00 29 1009.6
20260506153035 52 51 1.0 4.0 0.00 0.00 0.00 30 1009.6
20260506152136 53 33 2.0 7.0 0.00 0.00 0.00 28 1009.6
20260506151235 53 65 1.0 3.0 0.00 0.00 0.00 30 1009.7
20260506150336 52 24 3.0 6.0 0.00 0.00 0.00 37 1009.7
20260506145646 52 24 2.0 6.0 0.00 0.00 0.00 28 1009.7
20260506144536 52 38 2.0 6.0 0.00 0.00 0.00 27 1009.9
20260506143636 52 356 1.0 4.0 0.00 0.00 0.00 31 1009.8
20260506142736 52 303 3.0 7.0 0.00 0.00 0.00 35 1009.9
20260506141836 54 343 4.0 11.0 0.00 0.00 0.00 32 1010.0
20260506140935 53 332 3.0 11.0 0.00 0.00 0.00 34 1009.9
20260506140035 52 325 3.0 10.0 0.00 0.00 0.00 36 1010.0
20260506135348 52 309 6.0 11.0 0.00 0.00 0.00 37 1010.0
20260506134236 51 301 3.0 8.0 0.00 0.00 0.00 39 1010.1
20260506133336 51 306 4.0 8.0 0.00 0.00 0.00 37 1010.1
20260506132645 51 310 5.0 10.0 0.00 0.00 0.00 39 1010.3
20260506131535 52 286 5.0 12.0 0.00 0.00 0.00 36 1010.4
20260506130635 52 261 4.0 10.0 0.00 0.00 0.00 38 1010.3
20260506125736 50 271 5.0 8.0 0.00 0.00 0.00 38 1010.4
20260506124835 51 303 4.0 8.0 0.00 0.00 0.00 38 1010.5
20260506123936 52 351 4.0 9.0 0.00 0.00 0.00 39 1010.5
20260506123036 50 9 3.0 6.0 0.00 0.00 0.00 40 1010.5
20260506122136 51 299 4.0 9.0 0.00 0.00 0.00 38 1010.5
20260506121236 51 303 4.0 9.0 0.00 0.00 0.00 38 1010.7
20260506120336 51 288 5.0 10.0 0.00 0.01 0.00 35 1010.6
20260506115648 51 275 5.0 11.0 0.00 0.01 0.00 36 1010.7
20260506114536 52 299 4.0 11.0 0.00 0.01 0.00 37 1010.7
20260506113636 53 306 5.0 10.0 0.00 0.01 0.00 37 1010.8
20260506112735 53 346 6.0 16.0 0.00 0.01 0.00 35 1010.8
20260506111836 52 8 6.0 16.0 0.00 0.01 0.00 34 1010.9
20260506110936 53 327 3.0 13.0 0.00 0.01 0.00 35 1010.9
20260506110247 52 317 4.0 11.0 0.00 0.01 0.00 37 1010.8
20260506105136 50 277 4.0 8.0 0.00 0.01 0.00 37 1011.0
20260506104236 50 276 4.0 9.0 0.00 0.01 0.00 39 1011.0
20260506103549 50 256 2.0 7.0 0.00 0.01 0.00 41 1011.1
20260506102436 49 189 1.0 5.0 0.00 0.01 0.00 41 1011.3
20260506101536 48 266 2.0 7.0 0.00 0.01 0.00 43 1011.4
20260506100846 47 267 2.0 7.0 0.00 0.01 0.00 44 1011.5
20260506095736 47 246 2.0 7.0 0.00 0.01 0.00 47 1011.5
20260506094835 46 212 3.0 6.0 0.00 0.01 0.00 46 1011.7